RYR61LJ LEPA-LEZL

Flight info

Callsign RYR61LJ
Flight time 1h 12m
Altitude 37000
Route BAVER DCT GERVU DCT ALT DCT RESTU DCT TOSGA DCT ROLAS DCT UNTOS DCT RIXUR DCT MGA M744 MAR
Aircraft A320/M-SDE3FGHIRWY/LB1

Departure

Time 2026-04-26 17:44
Airport Palma de Mallorca Airport (LEPA)

Arrival

Time 2026-04-26 18:57
Airport Seville Airport (LEZL)
Time Latitude Longitude Altitude Speed Heading
2026-04-26 15:43 39.54999 2.73441 39 ft 0 kts 164°
2026-04-26 17:33 39.55000 2.73440 38 ft 2 kts 165°
2026-04-26 17:33 39.55024 2.73430 37 ft 4 kts 140°
2026-04-26 17:34 39.55035 2.73374 36 ft 3 kts 82°
2026-04-26 17:34 39.55033 2.73347 35 ft 4 kts 94°
2026-04-26 17:34 39.55035 2.73326 35 ft 0 kts 95°
2026-04-26 17:39 39.55034 2.73356 35 ft 6 kts 87°
2026-04-26 17:39 39.55045 2.73407 35 ft 7 kts 66°
2026-04-26 17:39 39.55070 2.73462 38 ft 7 kts 58°
2026-04-26 17:39 39.55106 2.73539 38 ft 14 kts 58°
2026-04-26 17:40 39.55165 2.73664 37 ft 16 kts 60°
2026-04-26 17:40 39.55169 2.73751 38 ft 15 kts 107°
2026-04-26 17:40 39.55244 2.73798 37 ft 13 kts 329°
2026-04-26 17:40 39.55329 2.73730 36 ft 16 kts 329°
2026-04-26 17:41 39.55438 2.73645 38 ft 20 kts 328°
2026-04-26 17:41 39.55567 2.73543 38 ft 23 kts 329°
2026-04-26 17:41 39.55677 2.73548 38 ft 17 kts 53°
2026-04-26 17:41 39.55747 2.73698 38 ft 23 kts 59°
2026-04-26 17:42 39.55840 2.73894 38 ft 28 kts 59°
2026-04-26 17:42 39.55943 2.74113 38 ft 29 kts 58°
2026-04-26 17:42 39.56036 2.74312 38 ft 22 kts 59°
2026-04-26 17:42 39.56111 2.74441 38 ft 12 kts 33°
2026-04-26 17:43 39.56131 2.74451 38 ft 0 kts 14°
2026-04-26 17:43 39.56161 2.74448 38 ft 9 kts 344°
2026-04-26 17:43 39.56244 2.74383 38 ft 17 kts 324°
2026-04-26 17:43 39.56224 2.74259 38 ft 19 kts 238°
2026-04-26 17:44 39.56036 2.73863 38 ft 87 kts 238°
2026-04-26 17:44 39.55611 2.72967 39 ft 144 kts 238°
2026-04-26 17:44 39.55039 2.71800 476 ft 154 kts 236°
2026-04-26 17:44 39.54457 2.70625 1054 ft 156 kts 236°
2026-04-26 17:45 39.53844 2.69396 1423 ft 173 kts 235°
2026-04-26 17:45 39.53150 2.68021 1729 ft 191 kts 236°
2026-04-26 17:45 39.52385 2.66499 1919 ft 214 kts 236°
2026-04-26 17:45 39.51542 2.64823 2338 ft 224 kts 236°
2026-04-26 17:46 39.50688 2.63119 2926 ft 228 kts 236°
2026-04-26 17:46 39.49811 2.61380 3504 ft 233 kts 235°
2026-04-26 17:46 39.48911 2.59626 4107 ft 235 kts 234°
2026-04-26 17:46 39.47999 2.57849 4035 ft 233 kts 235°
2026-04-26 17:47 39.47112 2.56100 4019 ft 232 kts 235°
2026-04-26 17:47 39.46827 2.55531 4012 ft 232 kts 235°
2026-04-26 17:47 39.45332 2.52559 4560 ft 235 kts 235°
2026-04-26 17:47 39.44408 2.50738 5196 ft 253 kts 235°
2026-04-26 17:48 39.43406 2.48749 5641 ft 275 kts 236°
2026-04-26 17:48 39.42352 2.46648 6458 ft 281 kts 236°
2026-04-26 17:48 39.41281 2.44508 7290 ft 286 kts 236°
2026-04-26 17:48 39.40194 2.42338 8152 ft 289 kts 236°
2026-04-26 17:49 39.39093 2.40147 9033 ft 292 kts 236°
2026-04-26 17:49 39.37981 2.37932 9909 ft 295 kts 236°
2026-04-26 17:49 39.36862 2.35701 10485 ft 309 kts 236°
2026-04-26 17:49 39.35648 2.33286 10749 ft 332 kts 236°
2026-04-26 17:50 39.34356 2.30725 11229 ft 345 kts 236°
2026-04-26 17:50 39.33033 2.28106 11927 ft 351 kts 236°
2026-04-26 17:50 39.31810 2.25356 12649 ft 357 kts 247°
2026-04-26 17:50 39.30950 2.22333 13394 ft 361 kts 250°
2026-04-26 17:51 39.30105 2.19265 14109 ft 365 kts 250°
2026-04-26 17:51 39.29255 2.16162 14747 ft 369 kts 250°
2026-04-26 17:51 39.28394 2.13027 15394 ft 372 kts 250°
2026-04-26 17:51 39.27522 2.09863 16027 ft 376 kts 249°
2026-04-26 17:52 39.26640 2.06669 16659 ft 380 kts 249°
2026-04-26 17:52 39.25748 2.03438 17282 ft 384 kts 249°
2026-04-26 17:52 39.24841 2.00182 17898 ft 388 kts 249°
2026-04-26 17:52 39.23927 1.96890 18505 ft 392 kts 249°
2026-04-26 17:53 39.23009 1.93565 19040 ft 395 kts 249°
2026-04-26 17:53 39.22083 1.90217 19602 ft 398 kts 249°
2026-04-26 17:53 39.21145 1.86839 20129 ft 402 kts 249°
2026-04-26 17:54 39.19235 1.80008 21253 ft 408 kts 249°
2026-04-26 17:54 39.18268 1.76557 21810 ft 411 kts 249°
2026-04-26 17:54 39.17293 1.73081 22367 ft 414 kts 249°
2026-04-26 17:54 39.16310 1.69587 22909 ft 416 kts 249°
2026-04-26 17:55 39.15317 1.66070 23441 ft 419 kts 249°
2026-04-26 17:55 39.14318 1.62523 23915 ft 422 kts 249°
2026-04-26 17:55 39.13317 1.58962 24348 ft 424 kts 249°
2026-04-26 17:55 39.12310 1.55383 24777 ft 426 kts 249°
2026-04-26 17:56 39.11296 1.51782 25183 ft 428 kts 249°
2026-04-26 17:56 39.09250 1.44547 26018 ft 432 kts 249°
2026-04-26 17:57 39.07527 1.38488 26659 ft 435 kts 249°
2026-04-26 17:57 39.06147 1.33627 27161 ft 438 kts 249°
2026-04-26 17:57 39.05438 1.31137 27413 ft 440 kts 249°
2026-04-26 17:57 39.04041 1.26229 27892 ft 442 kts 249°
2026-04-26 17:58 39.01177 1.16234 28831 ft 448 kts 249°
2026-04-26 17:59 38.99017 1.08743 29478 ft 452 kts 249°
2026-04-26 17:59 38.97908 1.04896 29796 ft 454 kts 249°
2026-04-26 17:59 38.96826 1.01134 30095 ft 456 kts 249°
2026-04-26 17:59 38.95726 0.97309 30361 ft 458 kts 249°
2026-04-26 18:00 38.94621 0.93471 30611 ft 459 kts 249°
2026-04-26 18:00 38.93510 0.89624 30868 ft 460 kts 249°
2026-04-26 18:00 38.92392 0.85767 31115 ft 461 kts 249°
2026-04-26 18:00 38.91268 0.81910 31342 ft 462 kts 249°
2026-04-26 18:01 38.90141 0.78050 31659 ft 461 kts 249°
2026-04-26 18:01 38.89022 0.74207 31977 ft 460 kts 249°
2026-04-26 18:01 38.87904 0.70362 32305 ft 459 kts 250°
2026-04-26 18:01 38.86793 0.66539 32649 ft 457 kts 250°
2026-04-26 18:02 38.85684 0.62728 32991 ft 455 kts 250°
2026-04-26 18:02 38.84935 0.60158 33216 ft 454 kts 250°
2026-04-26 18:02 38.83470 0.55149 33665 ft 452 kts 249°
2026-04-26 18:02 38.82362 0.51380 34006 ft 451 kts 249°
2026-04-26 18:03 38.81257 0.47627 34308 ft 449 kts 250°
2026-04-26 18:03 38.80152 0.43882 34583 ft 449 kts 249°
2026-04-26 18:03 38.79048 0.40141 34847 ft 448 kts 250°
2026-04-26 18:03 38.77947 0.36410 35066 ft 448 kts 250°
2026-04-26 18:04 38.76840 0.32666 35271 ft 449 kts 250°
2026-04-26 18:04 38.75734 0.28927 35500 ft 449 kts 249°
2026-04-26 18:04 38.74626 0.25188 35730 ft 449 kts 249°
2026-04-26 18:05 38.72409 0.17723 36175 ft 448 kts 249°
2026-04-26 18:05 38.71300 0.14000 36408 ft 447 kts 250°
2026-04-26 18:05 38.70193 0.10280 36606 ft 447 kts 250°
2026-04-26 18:05 38.69086 0.06561 36812 ft 447 kts 250°
2026-04-26 18:06 38.67977 0.02846 37011 ft 447 kts 250°
2026-04-26 18:06 38.66868 -0.00866 37114 ft 446 kts 250°
2026-04-26 18:06 38.65757 -0.04579 37127 ft 447 kts 251°
2026-04-26 18:07 38.63530 -0.11994 37123 ft 446 kts 250°
2026-04-26 18:07 38.61301 -0.19403 37121 ft 446 kts 250°
2026-04-26 18:08 38.59064 -0.26810 37124 ft 446 kts 250°
2026-04-26 18:08 38.56826 -0.34207 37126 ft 446 kts 250°
2026-04-26 18:09 38.54583 -0.41598 37124 ft 446 kts 250°
2026-04-26 18:09 38.52346 -0.48937 37126 ft 446 kts 250°
2026-04-26 18:10 38.50091 -0.56320 37129 ft 446 kts 250°
2026-04-26 18:10 38.47835 -0.63699 37131 ft 446 kts 250°
2026-04-26 18:11 38.45575 -0.71071 37131 ft 446 kts 250°
2026-04-26 18:11 38.43309 -0.78443 37124 ft 446 kts 250°
2026-04-26 18:12 38.41040 -0.85806 37130 ft 446 kts 250°
2026-04-26 18:12 38.38766 -0.93162 37128 ft 446 kts 250°
2026-04-26 18:13 38.36483 -1.00513 37126 ft 446 kts 250°
2026-04-26 18:13 38.34197 -1.07857 37121 ft 446 kts 250°
2026-04-26 18:14 38.31908 -1.15197 37121 ft 446 kts 250°
2026-04-26 18:14 38.29619 -1.22526 37129 ft 445 kts 250°
2026-04-26 18:15 38.27327 -1.29845 37125 ft 445 kts 250°
2026-04-26 18:15 38.25030 -1.37145 37124 ft 444 kts 250°
2026-04-26 18:16 38.22728 -1.44438 37124 ft 444 kts 250°
2026-04-26 18:16 38.19278 -1.55368 37125 ft 444 kts 250°
2026-04-26 18:17 38.16979 -1.62641 37129 ft 443 kts 250°
2026-04-26 18:17 38.14670 -1.69903 37127 ft 443 kts 250°
2026-04-26 18:18 38.12357 -1.77152 37133 ft 443 kts 250°
2026-04-26 18:18 38.10044 -1.84394 37136 ft 443 kts 250°
2026-04-26 18:19 38.07723 -1.91629 37120 ft 442 kts 250°
2026-04-26 18:19 38.05403 -1.98860 37136 ft 442 kts 250°
2026-04-26 18:20 38.03080 -2.06080 37138 ft 442 kts 250°
2026-04-26 18:20 38.01140 -2.12071 37137 ft 442 kts 249°
2026-04-26 18:21 37.98430 -2.20444 37146 ft 442 kts 249°
2026-04-26 18:21 37.96102 -2.27646 37142 ft 442 kts 249°
2026-04-26 18:22 37.93766 -2.34844 37128 ft 441 kts 250°
2026-04-26 18:22 37.91428 -2.42032 37130 ft 441 kts 250°
2026-04-26 18:23 37.89077 -2.49208 37130 ft 441 kts 249°
2026-04-26 18:23 37.86720 -2.56381 37125 ft 441 kts 249°
2026-04-26 18:24 37.84360 -2.63555 37116 ft 441 kts 249°
2026-04-26 18:24 37.81989 -2.70714 37113 ft 441 kts 249°
2026-04-26 18:25 37.79625 -2.77874 37106 ft 441 kts 250°
2026-04-26 18:25 37.77258 -2.85026 37105 ft 441 kts 249°
2026-04-26 18:26 37.74888 -2.92174 37092 ft 441 kts 249°
2026-04-26 18:26 37.72515 -2.99319 37094 ft 441 kts 250°
2026-04-26 18:27 37.70134 -3.06464 37073 ft 441 kts 249°
2026-04-26 18:27 37.67759 -3.13613 37076 ft 442 kts 249°
2026-04-26 18:28 37.65377 -3.20755 37073 ft 441 kts 249°
2026-04-26 18:28 37.62982 -3.27884 37083 ft 441 kts 250°
2026-04-26 18:29 37.60582 -3.35009 37087 ft 441 kts 249°
2026-04-26 18:29 37.58180 -3.42130 37086 ft 441 kts 249°
2026-04-26 18:30 37.55771 -3.49244 37076 ft 441 kts 249°
2026-04-26 18:30 37.53359 -3.56351 37074 ft 441 kts 249°
2026-04-26 18:31 37.50941 -3.63454 37074 ft 441 kts 249°
2026-04-26 18:31 37.48526 -3.70551 37062 ft 441 kts 249°
2026-04-26 18:32 37.46107 -3.77641 37068 ft 441 kts 249°
2026-04-26 18:32 37.43697 -3.84674 37059 ft 441 kts 249°
2026-04-26 18:33 37.41274 -3.91753 37055 ft 441 kts 249°
2026-04-26 18:33 37.38847 -3.98822 37049 ft 440 kts 249°
2026-04-26 18:34 37.36408 -4.05887 37062 ft 440 kts 249°
2026-04-26 18:34 37.33967 -4.12944 36860 ft 440 kts 249°
2026-04-26 18:35 37.32747 -4.16475 36608 ft 440 kts 249°
2026-04-26 18:35 37.31527 -4.20001 36348 ft 441 kts 249°
2026-04-26 18:35 37.30301 -4.23533 35778 ft 443 kts 249°
2026-04-26 18:35 37.29065 -4.27089 34969 ft 445 kts 249°
2026-04-26 18:36 37.27819 -4.30665 34112 ft 449 kts 249°
2026-04-26 18:36 37.26565 -4.34263 33163 ft 451 kts 249°
2026-04-26 18:36 37.25314 -4.37846 32638 ft 444 kts 248°
2026-04-26 18:36 37.24078 -4.41375 32039 ft 440 kts 248°
2026-04-26 18:37 37.22853 -4.44872 31449 ft 436 kts 248°
2026-04-26 18:37 37.21637 -4.48340 30863 ft 432 kts 248°
2026-04-26 18:37 37.20435 -4.51776 30286 ft 429 kts 248°
2026-04-26 18:37 37.19240 -4.55190 29654 ft 426 kts 248°
2026-04-26 18:38 37.18055 -4.58567 29083 ft 420 kts 248°
2026-04-26 18:38 37.16881 -4.61904 28539 ft 416 kts 248°
2026-04-26 18:38 37.15718 -4.65202 27993 ft 412 kts 248°
2026-04-26 18:38 37.14566 -4.68469 27451 ft 408 kts 248°
2026-04-26 18:39 37.13425 -4.71703 26938 ft 404 kts 248°
2026-04-26 18:39 37.12310 -4.74869 26421 ft 401 kts 248°
2026-04-26 18:39 37.11171 -4.78095 25913 ft 398 kts 248°
2026-04-26 18:39 37.10055 -4.81249 25415 ft 395 kts 248°
2026-04-26 18:40 37.08943 -4.84389 24933 ft 393 kts 248°
2026-04-26 18:40 37.07859 -4.87462 24461 ft 390 kts 247°
2026-04-26 18:40 37.06872 -4.90607 23992 ft 386 kts 255°
2026-04-26 18:40 37.06340 -4.93879 23521 ft 382 kts 266°
2026-04-26 18:41 37.06286 -4.97177 23033 ft 377 kts 275°
2026-04-26 18:41 37.06692 -5.00391 22587 ft 372 kts 283°
2026-04-26 18:41 37.07266 -5.03528 22126 ft 368 kts 283°
2026-04-26 18:41 37.07824 -5.06645 21676 ft 365 kts 283°
2026-04-26 18:42 37.08370 -5.09735 21230 ft 362 kts 283°
2026-04-26 18:42 37.08912 -5.12808 20771 ft 360 kts 283°
2026-04-26 18:42 37.09452 -5.15859 20321 ft 358 kts 283°
2026-04-26 18:42 37.09990 -5.18900 19845 ft 357 kts 283°
2026-04-26 18:43 37.10526 -5.21931 19380 ft 356 kts 283°
2026-04-26 18:43 37.11062 -5.24958 18916 ft 356 kts 282°
2026-04-26 18:43 37.11597 -5.27981 18448 ft 355 kts 282°
2026-04-26 18:43 37.12130 -5.30999 17943 ft 355 kts 282°
2026-04-26 18:44 37.12660 -5.34013 17471 ft 353 kts 282°
2026-04-26 18:44 37.13186 -5.37012 17011 ft 351 kts 282°
2026-04-26 18:44 37.13710 -5.39995 16562 ft 350 kts 282°
2026-04-26 18:44 37.14231 -5.42971 16115 ft 349 kts 282°
2026-04-26 18:45 37.14748 -5.45935 15655 ft 348 kts 282°
2026-04-26 18:45 37.15264 -5.48897 15223 ft 347 kts 282°
2026-04-26 18:45 37.15605 -5.50852 14930 ft 347 kts 282°
2026-04-26 18:45 37.16292 -5.54802 14339 ft 346 kts 282°
2026-04-26 18:46 37.16632 -5.56751 14043 ft 346 kts 282°
2026-04-26 18:46 37.17145 -5.59695 13574 ft 345 kts 282°
2026-04-26 18:46 37.17654 -5.62634 13115 ft 344 kts 282°
2026-04-26 18:46 37.18151 -5.65555 12660 ft 342 kts 281°
2026-04-26 18:47 37.18643 -5.68466 12208 ft 340 kts 282°
2026-04-26 18:47 37.19131 -5.71365 11751 ft 339 kts 282°
2026-04-26 18:47 37.19618 -5.74251 11304 ft 338 kts 282°
2026-04-26 18:47 37.20105 -5.77129 10841 ft 337 kts 282°
2026-04-26 18:48 37.20589 -5.79998 10381 ft 336 kts 282°
2026-04-26 18:48 37.21066 -5.82830 10196 ft 326 kts 282°
2026-04-26 18:48 37.21526 -5.85559 10070 ft 314 kts 282°
2026-04-26 18:48 37.21971 -5.88212 9849 ft 307 kts 282°
2026-04-26 18:49 37.22412 -5.90853 9358 ft 311 kts 282°
2026-04-26 18:49 37.22851 -5.93485 9021 ft 306 kts 282°
2026-04-26 18:49 37.23284 -5.96087 8498 ft 303 kts 282°
2026-04-26 18:49 37.23712 -5.98665 7792 ft 301 kts 282°
2026-04-26 18:50 37.24137 -6.01225 7096 ft 299 kts 282°
2026-04-26 18:50 37.24560 -6.03762 6476 ft 294 kts 281°
2026-04-26 18:50 37.25173 -6.06208 5981 ft 294 kts 299°
2026-04-26 18:50 37.26401 -6.08219 5472 ft 292 kts 321°
2026-04-26 18:51 37.28095 -6.09497 5126 ft 278 kts 342°
2026-04-26 18:51 37.29950 -6.10000 4435 ft 271 kts 355°
2026-04-26 18:51 37.31824 -6.10283 3717 ft 270 kts 355°
2026-04-26 18:51 37.33655 -6.10553 3333 ft 256 kts 355°
2026-04-26 18:52 37.35335 -6.10804 3281 ft 233 kts 355°
2026-04-26 18:52 37.36882 -6.11024 3185 ft 222 kts 358°
2026-04-26 18:52 37.38401 -6.10834 2937 ft 216 kts 18°
2026-04-26 18:52 37.39714 -6.10073 2824 ft 202 kts 37°
2026-04-26 18:53 37.40725 -6.08908 2720 ft 192 kts 53°
2026-04-26 18:53 37.41388 -6.07500 2527 ft 184 kts 69°
2026-04-26 18:53 37.41696 -6.05991 2324 ft 173 kts 84°
2026-04-26 18:53 37.41727 -6.04530 2110 ft 161 kts 90°
2026-04-26 18:54 37.41735 -6.03193 1928 ft 146 kts 90°
2026-04-26 18:54 37.41741 -6.01961 1738 ft 138 kts 91°
2026-04-26 18:54 37.41748 -6.00763 1551 ft 136 kts 90°
2026-04-26 18:54 37.41751 -5.99583 1369 ft 135 kts 90°
2026-04-26 18:55 37.41759 -5.98417 1227 ft 132 kts 92°
2026-04-26 18:55 37.41756 -5.97254 1056 ft 134 kts 91°
2026-04-26 18:55 37.41766 -5.96089 906 ft 132 kts 92°
2026-04-26 18:55 37.41768 -5.94935 673 ft 133 kts 90°
2026-04-26 18:56 37.41776 -5.93780 525 ft 133 kts 91°
2026-04-26 18:56 37.41780 -5.92617 358 ft 133 kts 92°
2026-04-26 18:56 37.41785 -5.91459 206 ft 132 kts 91°
2026-04-26 18:56 37.41793 -5.90342 100 ft 117 kts 90°
2026-04-26 18:57 37.41793 -5.89508 99 ft 71 kts 90°
2026-04-26 18:57 37.41794 -5.89191 100 ft 38 kts 90°
2026-04-26 18:57 37.41797 -5.88863 104 ft 20 kts 88°
2026-04-26 18:57 37.41875 -5.88768 104 ft 18 kts 10°
2026-04-26 18:58 37.41976 -5.88771 103 ft 11 kts 314°
2026-04-26 18:58 37.41984 -5.88863 102 ft 11 kts 269°
2026-04-26 18:58 37.41983 -5.88955 101 ft 10 kts 269°
2026-04-26 18:58 37.41983 -5.89052 101 ft 12 kts 271°
2026-04-26 18:59 37.41983 -5.89173 100 ft 15 kts 270°
2026-04-26 18:59 37.41985 -5.89324 101 ft 19 kts 272°
2026-04-26 18:59 37.41981 -5.89513 98 ft 24 kts 269°
2026-04-26 18:59 37.41981 -5.89743 97 ft 27 kts 270°
2026-04-26 19:00 37.42007 -5.89881 96 ft 14 kts 319°
2026-04-26 19:00 37.42080 -5.89934 95 ft 10 kts 319°
2026-04-26 19:00 37.42126 -5.89993 94 ft 7 kts 314°
2026-04-26 19:00 37.42150 -5.90023 94 ft 2 kts 314°
2026-04-26 19:01 37.42156 -5.90030 94 ft 0 kts 315°